リニア彗星

C/2011 J2 ( LINEAR )

English version
Home page
Updated on March 25, 2017

---------------------------------------------------------------------

・ プロフィール

発見日 2011年5月4日
発見光度 19.7等
発見者 Lincoln Laboratory Near-Earth Asteroid Research project

・ 写真集

・ 軌道要素

C/2011 J2 (LINEAR)
Epoch 2013 Dec. 14.0 TT = JDT 2456640.5
T 2013 Dec. 25.29203 TT                                 MPCW
q   3.4434427            (2000.0)            P               Q
z  -0.0001502      Peri.   85.29283     +0.07042153     +0.97005811
 +/-0.0000000      Node   163.94718     +0.16358639     -0.24109395
e   1.0005170      Incl.  122.79880     +0.98401235     -0.02934240
From 6108 observations 2011 Mar. 10-2016 Oct. 28, mean residual 0".5.

C/2011 J2-B (LINEAR)
Epoch 2013 Dec. 14.0 TT = JDT 2456640.5
T 2013 Dec. 25.16921 TT                                 MPCW
q   3.4426415            (2000.0)            P               Q
z  -0.0003711      Peri.   85.25023     +0.06974460     +0.97009673
 +/-0.0000164      Node   163.94364     +0.16380637     -0.24102354
e   1.0012776      Incl.  122.80149     +0.98402397     -0.02863530
From 305 observations 2014 Aug. 27-2015 Jan. 4, mean residual 0".6.

C/2011 J2-C (LINEAR)
Epoch 2013 Dec. 14.0 TT = JDT 2456640.5
T 2013 Dec. 25.26191 TT                                 MPCW
q   3.4424798            (2000.0)            P               Q
z  -0.0003816      Peri.   85.26741     +0.06996756     +0.97009531
 +/-0.0000828      Node   163.94884     +0.16366235     -0.24099837
e   1.0013137      Incl.  122.79683     +0.98403210     -0.02889422
From 18 observations 2014 Oct. 4-2015 Jan. 4, mean residual 0".5.

・ 星図

・ 光度変化

        m1 = 7.2 + 5 logΔ + 7.5 log r

	B核:
        m1 = 9.5 + 5 logΔ + 10.0 log r

	C核:
        m1 = 9.5 + 5 logΔ + 10.0 log r

---------------------------------------------------------------------

軌道要素はM.P.E.C. 2017-E59に掲載されたものです。
B核の軌道要素はM.P.E.C. 2015-K84に掲載されたものです。
C核の軌道要素はM.P.E.C. 2015-B177に掲載されたものです。
星図はステラナビゲータ Ver.8 (アストロアーツ) で作成したものです。
光度グラフはComet for Windowsで作成したものです。

---------------------------------------------------------------------

Copyright(C) Seiichi Yoshida (comet@aerith.net). All rights reserved.